www.pogodaiklimat.ru

Погода и климат >> Архив погоды >> Россия >> Приморский край >> Свиягино


АРХИВ ПОГОДЫ в Свиягино

Время (UTC), дата Ветер
(напр.,м/с)
 
Видим.   Явления Облачность Т
(С)
Тd
(С)
f
(%)
Тe
(С)
Тes
(С)
Комфортность P
(гПа)
Po
(гПа)
Тmin
(С)
Tmax
(С)
R
(мм)
R24
(мм)
S
(см)
00 16.04 ЮЗ 5
{9}
20 км ясно +16.5 -2.9 26 +16 +20 1006.1 994.3
03 16.04 ЮЗ 6-13
{13}
20 км 1/0
[Ci sp]
+20.5 -2.9 20 +20 +26 1004.1 992.5
06 16.04 ЮЗ 8-13
{14}
20 км 9/0
[Ci sp]
+22.8 -5.2 15 +21 +21 комфорт 1003.4 992.0
09 16.04 ЮЗ 6
{13}
20 км 10/0
[Ci sp]
+20.8 -2.3 21 +20 +20 1002.1 990.7 +23.5
12 16.04 ЮЗ 6
{12}
20 км 8/0
[Ci sp]
+16.8 -6.0 20 +16 +16 1003.9 992.2
15 16.04 ЮЗ 4 20 км ясно +15.9 -7.7 19 +15 +15 1006.4 994.7
18 16.04 ЮЗ 4 н/о н/о +15.7 -7.9 19 +15 1006.4 994.7
21 16.04 Ю 1 20 км 4/0
[Ci sp]
+12.7 -6.3 26 +13 +14 1006.5 994.7 +12.1
00 17.04 ЮЗ 4
{12}
50 км 3/0
[Ci sp]
+18.8 -3.3 22 +19 +24 1005.7 994.0
03 17.04 Ю 3 50 км ясно +23.6 -2.1 18 +22 +35 комфорт 1004.6 993.3
06 17.04 З 4 50 км 7 баллов +26.0 -4.6 13 +23 +25 комфорт 1000.5 989.3
09 17.04 ЮЗ 4
{11}
50 км 8/0
[Ci sp]
+23.0 -7.9 12 +21 +21 комфорт 999.3 988.0 +26.3
12 17.04 Ю 4
{11}
20 км 8/0
[Ac As]
+16.9 -9.7 15 +17 +17 999.6 987.9
15 17.04 Ю 5
{12}
20 км 10 баллов +17.0 -11.6 13 +16 +16 998.2 986.7
18 17.04 ЮЗ 3
{13}
20 км 10 баллов +12.2 -4.0 32 +11 +11 998.4 986.7
21 17.04 ЮЗ 6
{11}
20 км 8/0
[Ac As Ci sp]
+14.5 +1.1 40 +13 +13 996.9 985.3 +11.4
00 18.04 З 8-14
{14}
20 км 10/4 600 м
[Cb cap Ac und]
+17.3 +1.7 35 +16 +16 998.2 986.7
03 18.04 СЗ 6-13
{15}
20 км 10/3 600 м
[Cb cap Ac und]
+7.5 -2.0 51 +4 +4 1004.0 992.0
06 18.04 СЗ 6-13
{14}
20 км 9/3 600 м
[Cb cap Ac As]
+6.7 -4.4 45 +3 +3 1006.8 994.7
09 18.04 СЗ 6-12
{15}
20 км 10/6 600 м
[Cb cap Ac und]
+4.5 -3.5 56 -0 -0 1010.9 998.7 +17.6
12 18.04 З 1
{15}
20 км 8/3 600 м
[Cb cap Ac und]
+1.9 -4.0 65 +1 +1 1013.0 1000.5
15 18.04 З 2 20 км 6 баллов +0.4 -4.6 69 -3 -3 1013.7 1001.3
18 18.04 З 1 20 км 4 балла -0.3 -7.1 60 -2 -2 1015.2 1002.7
21 18.04 З 2 20 км ясно +1.0 -6.1 59 -2 -2 1014.3 1001.7 -1.4
00 19.04 СЗ 7-12
{12}
20 км 1/1 600 м
[Cu med, cong]
+5.4 -14.2 23 +1 +3 1014.5 1002.1
03 19.04 СЗ 6 20 км ясно +7.5 -15.3 18 +4 +11 1014.8 1002.7
06 19.04 СЗ 6 20 км ясно +9.0 -14.0 18 +6 +10 1013.4 1001.3
09 19.04 СЗ 5
{13}
20 км ясно +9.1 -12.7 20 +7 +7 1013.3 1001.3 +9.7
12 19.04 С 2 20 км ясно +4.9 -6.3 44 +3 +3 1014.9 1002.7
15 19.04 ЮЗ 1 20 км ясно -2.5 -8.0 66 -4 -4 1016.6 1004.0
18 19.04 ЮВ 1 20 км ясно -5.0 -7.7 81 -7 -7 1016.7 1004.0
21 19.04 Ю 1 20 км ясно -5.1 -8.4 78 -7 -7 1015.8 1002.9 -5.7
00 20.04 ЮЗ 2 50 км 3/0
[Ci sp]
+6.0 -12.0 26 +5 +13 1014.8 1002.5
03 20.04 С 2 50 км 6 баллов +10.6 -12.1 19 +10 +16 1013.3 1001.3
06 20.04 В 2 20 км 10 баллов +14.1 -13.0 14 +14 +14 1009.1 997.3
09 20.04 ЮВ 1 20 км 10/0
[Ac trans Ci sp]
+14.3 -10.4 17 +15 +15 1006.4 994.7 +15.4
12 20.04 Ю 2 20 км 10/0
[Ci sp]
+7.6 -8.6 31 +6 +6 1006.7 994.5
15 20.04 ЮЗ 3 20 км 10 баллов +9.2 -5.1 36 +7 +7 1008.0 996.0
18 20.04 З 4 20 км 10 баллов +8.0 +0.5 59 +5 +5 1009.3 997.3
21 20.04 Ю 1 20 км 4/0
[Ac trans]
+4.7 -0.6 68 +4 +4 1011.0 998.7 +3.8
00 21.04 З 3 20 км 10/0
[Ac und]
+10.8 -4.8 33 +9 +12 1012.4 1000.3
03 21.04 ЮЗ 3 20 км 10 баллов +13.3 -9.8 19 +13 +13 1011.8 1000.0
06 21.04 СЗ 3 20 км 10 баллов +15.0 -15.2 11 +15 +15 1010.5 998.7
09 21.04 С 2 20 км 10/0
[Ci sp]
+13.2 -12.9 15 +13 +13 1010.5 998.7 +15.3
12 21.04 ЮЗ 1 20 км 9/0
[Ci sp]
+4.0 -8.0 41 +3 +3 1013.1 1000.7
15 21.04 Ю 2 20 км ясно +0.1 -6.5 61 -3 -3 1016.5 1004.0
18 21.04 Ю 2 20 км ясно -0.2 -7.0 60 -3 -3 1016.5 1004.0
21 21.04 Ю 2 20 км ясно +0.1 -6.7 60 -3 -3 1017.5 1004.8 -1.6
00 22.04 З 2 20 км ясно +9.4 -3.0 42 +8 +17 1018.6 1006.4
03 22.04 З 1 50 км 2 балла +14.2 -10.5 17 +15 +30 опасность
простуды
1018.6 1006.7
06 22.04 СЗ 1 50 км 6 баллов +15.6 -13.7 12 +17 +21 1017.1 1005.3
09 22.04 СВ 2 50 км 3/0
[Ci sp]
+15.8 -8.5 18 +16 +17 1014.5 1002.7 +16.9
12 22.04 Ю 3 20 км 3/0
[Ac trans]
+10.4 -9.5 24 +9 +9 1013.2 1001.1
15 22.04 Ю 2 20 км 10 баллов +10.5 -9.2 24 +10 +10 1013.3 1001.3
21 22.04 Ю 2 20 км в посл. час дождь 10/0
[Ac As Ci sp]
+5.8 +2.6 80 +3 +4 1008.6 996.3 +5.4 2

 

Местоположение метеостанции Свиягино (Приморский край, Россия): широта 44.80 долгота 133.00 высота над уровнем моря 99 м.

В архиве по умолчанию представлена погода в Свиягино за последнюю неделю. Архивные данные за месяц целиком и за предыдущие месяцы, начиная с января 2011 года, Вы можете получить, выбрав интересующий диапазон дат из раскрывающегося списка и нажав кнопку "Ввод!".


*Определитесь, кто Вы:
робот инопланетянин человек

Внимание! Время в таблицах - всемирное. Для получения местного времени необходимо прибавить поправку, которая равна 10 ч.

Смотрите также архив погоды в соседних городах и на ближайших метеорологических станциях:

Погода в Спасск-Дальнем (Приморский край, Россия) (25 км)
Погода в Кировском (Приморский край, Россия) (52 км)
Погода в Лесозаводске (Приморский край, Россия) (78 км)
Погода в Астраханке (Приморский край, Россия) (79 км)
Погода в Хороле (Приморский край, Россия) (89 км)
Погода в Турьем Роге (Приморский край, Россия) (92 км)
Погода в Анучино (Приморский край, Россия) (92 км)
Погода в Чугуевке (Приморский край, Россия) (96 км)
Погода в Хулине (Хэйлунцзян, Китай) (108 км)
Погода в Малиново (Приморский край, Россия) (117 км)

Пояснения к столбцам:

Ветер - указаны скорость ветра в м/с - средняя за 10 мин, порывы в срок и между сроками (в фигурных скобках) и направление, откуда дует ветер: С - северный, СВ - северо-восточный, В - восточный, ЮВ - юго-восточный, Ю - южный, ЮЗ - юго-западный, З - западный, СЗ - северо-западный.
Видимость - горизонтальная дальность видимости в метрах или километрах. При видимости от 1 до 10 км при отсутствии осадков обычно наблюдается дымка, при ухудшении видимости до 1 км и менее - туман. В сухую погоду видимость может ухудшаться дымом, пылью или мглою.
Явления - указаны атмосферные явления, наблюдавшиеся в срок или в последний час перед сроком; фигурными скобками обозначены явления, наблюдавшиеся между сроками (за 1-3 часа до срока); квадратными скобками обозначены град или гололедные отложения с указанием их диаметра в мм.
Облачность - указаны через наклонную черту общая и нижняя облачность в баллах и высота нижней границы облаков в метрах; квадратными скобками обозначены формы облаков: Ci - перистые, Cs - перисто-слоистые, Cc - перисто-кучевые, Ac - высококучевые, As - высокослоистые, Sc - слоисто-кучевые, Ns - слоисто-дождевые, Cu - кучевые, Cb - кучево-дождевые. Подробнее классификацию облаков см. в Атласе облаков (PDF).
T - Температура воздуха - температура, измеренная на высоте 2 м над землей.
Td - Температура точки росы - температура, при понижении до которой содержащийся в воздухе водяной пар достигнет насыщения.
f - Относительная влажность воздуха - влажноcть воздуха, измеренная на высоте 2 м над землей.
Te - Эффективная температура - температура, которую ощущает одетый по сезону человек в тени. Характеристика душности погоды. При расчете учитывается влияние влажности воздуха и скорости ветра на теплоощущения человека.
Tes - Эффективная температура на солнце - температура, которую ощущает человек, с поправкой на солнечный нагрев. Характеристика знойности погоды. Зависит от высоты солнца над горизонтом, облачности и скорости ветра. Ночью, в пасмурную погоду, а также при ветре 12 м/с и более поправка равна нулю.
P - Атмосферное давление - приведенное к уровню моря атмосферное давление.
Po - Атмосферное давление - измеренное на уровне метеостанции атмосферное давление.
Tmin - Минимальная температура - минимум температуры воздуха на высоте 2 м над землей.
Tmax - Максимальная температура - максимум температуры воздуха на высоте 2 м над землей.
R - Количество осадков - Количество выпавших осадков за период времени, мм. При наведении курсора мыши на число - период времени, за который выпало указанное количество осадков.
R24 - Количество осадков - Количество выпавших осадков за 24 часа, мм.
S - Снежный покров - Высота снежного покрова, см. При наведении курсора мыши на число - состояние снежного покрова и степень покрытия местности в баллах.